Weather History for KSGF - September, 2012

Change the Weather History Date:

Wednesday, September 26, 2012

  Actual Average Record
Temperature  
Mean Temperature 67 °F 64 °F  
Max Temperature 73 °F 76 °F 92 °F (1953)
Min Temperature 60 °F 53 °F 34 °F (1975)
Degree Days  
Heating Degree Days 0 4  
Month to date heating degree days 39 36  
Since 1 July heating degree days 39 38  
Cooling Degree Days 2 3  
Month to date cooling degree days 143 161  
Year to date cooling degree days 1733 1347  
Growing Degree Days 18 (Base 50)    
Moisture  
Dew Point 60 °F    
Average Humidity 77    
Maximum Humidity 90    
Minimum Humidity 63    
Precipitation  
Precipitation 0.67 in 0.15 in 3.90 in (1996)
Month to date precipitation 5.00 4.02  
Year to date precipitation 24.41 34.13  
Snow  
Snow 0.00 in - - ()
Month to date snowfall 0.0  
Since 1 July snowfall 0.0  
Since 1 September snowfall 0.0  
Snow Depth 0.00 in    
Sea Level Pressure  
Sea Level Pressure 29.99 in    
Wind  
Wind Speed 5 mph (ENE)    
Max Wind Speed 18 mph    
Max Gust Speed 22 mph    
Visibility 9 miles    
Events Rain , Thunderstorm    
T = Trace of Precipitation, MM = Missing Value Source: NWS Daily Summary

Daily Weather History Graph

Daily Weather History Graph

Search for Another Location

Airport or City:

Trip Planner

Search our weather history database for the weather conditions in past years. The results will help you decide how hot, cold, wet, or windy it might be!

Date:

Astronomy

Sep. 26, 2012 Rise Set
Actual Time 7:05 AM CDT 7:03 PM CDT
Civil Twilight 6:39 AM CDT 7:29 PM CDT
Nautical Twilight 6:08 AM CDT 7:59 PM CDT
Astronomical Twilight 5:38 AM CDT 8:30 PM CDT
Moon 5:00 PM CDT (9/26) 3:35 AM CDT (9/26)
Length of Visible Light 12h 50m
Length of Day
11h 58m
Waxing Gibbous, 88% of the Moon is Illuminated
Sep 26
Waxing Gibbous
Sep 29
Full
Oct 8
Last Quarter
Oct 15
New
Oct 21
First Quarter

Hourly Weather History & Observations

Time (CDT) Temp. Dew Point Humidity Pressure Visibility Wind Dir Wind Speed Gust Speed Precip Events Conditions
12:52 AM 68.0 °F 55.0 °F 63% 29.94 in 10.0 mi ENE 5.8 mph - N/A   Scattered Clouds
1:52 AM 66.9 °F 55.9 °F 68% 29.94 in 10.0 mi Calm Calm - N/A   Scattered Clouds
2:52 AM 68.0 °F 57.2 °F 68% 29.96 in 10.0 mi ENE 5.8 mph - N/A   Overcast
3:18 AM 66.2 °F 57.2 °F 73% 29.94 in 10.0 mi East 6.9 mph - N/A Thunderstorm Thunderstorm
3:39 AM 64.4 °F 57.2 °F 77% 29.94 in 1.8 mi Variable 4.6 mph - 0.00 in Rain , Thunderstorm Light Thunderstorms and Rain
3:49 AM 64.4 °F 60.8 °F 88% 29.95 in 3.0 mi NE 3.5 mph - 0.18 in Rain , Thunderstorm Thunderstorms and Rain
3:52 AM 64.9 °F 60.1 °F 84% 29.93 in 8.0 mi Calm Calm - 0.18 in Rain , Thunderstorm Light Thunderstorms and Rain
4:01 AM 64.4 °F 59.0 °F 83% 29.96 in 1.8 mi NE 15.0 mph 18.4 mph 0.13 in Rain , Thunderstorm Heavy Thunderstorms and Rain
4:07 AM 64.4 °F 59.0 °F 83% 29.96 in 2.0 mi WSW 10.4 mph 21.9 mph 0.31 in Rain , Thunderstorm Thunderstorms and Rain
4:16 AM 64.4 °F 59.0 °F 83% 29.95 in 10.0 mi Variable 3.5 mph - 0.32 in Rain , Thunderstorm Light Thunderstorms and Rain
4:42 AM 64.4 °F 60.8 °F 88% 29.96 in 10.0 mi North 8.1 mph - 0.32 in   Overcast
4:52 AM 63.0 °F 60.1 °F 90% 29.93 in 10.0 mi North 6.9 mph - 0.32 in   Overcast
5:52 AM 63.0 °F 59.0 °F 87% 29.96 in 10.0 mi North 8.1 mph - 0.00 in   Overcast
6:52 AM 62.1 °F 59.0 °F 90% 29.96 in 10.0 mi ENE 4.6 mph - 0.05 in   Clear
7:52 AM 62.1 °F 59.0 °F 90% 29.96 in 10.0 mi SE 5.8 mph - N/A   Partly Cloudy
8:52 AM 64.0 °F 61.0 °F 90% 29.96 in 10.0 mi SSE 6.9 mph - N/A   Clear
9:52 AM 66.9 °F 61.0 °F 81% 29.97 in 10.0 mi SSE 6.9 mph - N/A   Clear
10:52 AM 71.6 °F 64.4 °F 78% 30.02 in 10.0 mi SSW 8.1 mph - N/A   Clear
11:52 AM 71.1 °F 62.1 °F 73% 30.03 in 10.0 mi WNW 6.9 mph - N/A   Mostly Cloudy
12:52 PM 66.9 °F 62.1 °F 84% 30.06 in 10.0 mi West 13.8 mph - 0.00 in Rain Light Rain
1:52 PM 66.9 °F 62.1 °F 84% 30.01 in 10.0 mi NW 3.5 mph - 0.02 in   Scattered Clouds
2:52 PM 70.0 °F 62.1 °F 76% 29.99 in 10.0 mi NNW 3.5 mph - N/A   Clear
3:52 PM 72.0 °F 62.1 °F 71% 29.99 in 10.0 mi NNW 5.8 mph - N/A   Partly Cloudy
4:52 PM 72.0 °F 61.0 °F 68% 30.02 in 10.0 mi Calm Calm - N/A   Overcast
5:52 PM 71.1 °F 62.1 °F 73% 30.04 in 10.0 mi NE 3.5 mph - N/A   Overcast
6:52 PM 69.8 °F 62.6 °F 78% 30.05 in 10.0 mi ENE 4.6 mph - N/A   Overcast
7:52 PM 70.0 °F 63.0 °F 78% 30.04 in 10.0 mi East 3.5 mph - N/A   Overcast
8:52 PM 69.1 °F 62.1 °F 78% 30.05 in 10.0 mi ENE 4.6 mph - N/A   Mostly Cloudy
9:52 PM 69.1 °F 63.0 °F 81% 30.06 in 10.0 mi East 3.5 mph - N/A   Overcast
10:52 PM 66.0 °F 62.1 °F 87% 30.06 in 10.0 mi South 3.5 mph - N/A   Mostly Cloudy
11:52 PM 66.0 °F 62.1 °F 87% 30.07 in 10.0 mi South 4.6 mph - N/A   Overcast